FW8116 Weather Reports


time (UTC)temp
C
wind
direction
speed
KPH
gust
KPH
rain 1hr
cm
rain 24hr
cm
rain mn
cm
humidity
%
barometer
mb
20260510162513 26 0 0.0 4.8 0.00 0.00 0.00 48 1015.2
20260510162011 26 0 0.0 4.8 0.00 0.00 0.00 47 1015.2
20260510161528 25 0 0.0 6.4 0.00 0.00 0.00 47 1015.1
20260510161014 25 0 0.0 8.0 0.00 0.00 0.00 47 1015.2
20260510160512 25 334 3.2 8.0 0.00 0.00 0.00 44 1015.3
20260510160034 25 342 1.6 8.0 0.00 0.00 0.00 46 1015.5
20260510155512 25 0 0.0 6.4 0.00 0.00 0.00 52 1015.5
20260510155013 25 5 1.6 6.4 0.00 0.00 0.00 49 1015.6
20260510154531 24 0 1.6 6.4 0.00 0.00 0.00 50 1015.8
20260510154010 24 315 0.0 6.4 0.00 0.00 0.00 54 1015.7
20260510153509 23 340 1.6 6.4 0.00 0.00 0.00 56 1015.6
20260510153037 24 0 0.0 4.8 0.00 0.00 0.00 57 1015.7
20260510152512 23 248 1.6 8.0 0.00 0.00 0.00 55 1015.7
20260510152010 23 0 1.6 8.0 0.00 0.00 0.00 58 1015.5
20260510151528 23 171 0.0 6.4 0.00 0.00 0.00 57 1015.6
20260510151012 23 340 1.6 8.0 0.00 0.00 0.00 58 1015.4
20260510150509 23 336 1.6 8.0 0.00 0.00 0.00 58 1015.6
20260510150029 23 0 1.6 6.4 0.00 0.00 0.00 62 1015.3
20260510145511 23 325 1.6 6.4 0.00 0.00 0.00 62 1015.5
20260510145012 22 0 0.0 4.8 0.00 0.00 0.00 61 1015.6
20260510144530 22 0 0.0 6.4 0.00 0.00 0.00 63 1015.6
20260510144011 22 0 0.0 6.4 0.00 0.00 0.00 64 1015.4
20260510143511 22 310 1.6 3.2 0.00 0.00 0.00 67 1015.4
20260510143033 22 0 0.0 4.8 0.00 0.00 0.00 68 1015.5
20260510142511 21 0 1.6 4.8 0.00 0.00 0.00 67 1015.4
20260510142012 21 0 0.0 4.8 0.00 0.00 0.00 69 1015.4
20260510141532 21 0 0.0 3.2 0.00 0.00 0.00 69 1015.5
20260510141011 21 270 0.0 6.4 0.00 0.00 0.00 70 1015.4
20260510140509 21 0 0.0 6.4 0.00 0.00 0.00 70 1015.5
20260510140030 21 298 0.0 9.7 0.00 0.00 0.00 71 1015.5
20260510135511 21 347 0.0 9.7 0.00 0.00 0.00 73 1015.6
20260510135011 20 5 3.2 9.7 0.00 0.00 0.00 74 1015.6
20260510134529 20 355 1.6 8.0 0.00 0.00 0.00 76 1015.5
20260510134012 20 339 3.2 9.7 0.00 0.00 0.00 77 1015.4
20260510133511 20 22 1.6 9.7 0.00 0.00 0.00 78 1015.4
20260510133038 20 0 1.6 9.7 0.00 0.00 0.00 80 1015.4
20260510132515 19 333 1.6 9.7 0.00 0.00 0.00 83 1015.5
20260510132011 19 0 1.6 6.4 0.00 0.00 0.00 84 1015.5
20260510131530 18 338 0.0 6.4 0.00 0.00 0.00 87 1015.4
20260510131015 18 336 1.6 6.4 0.00 0.00 0.00 89 1015.3
20260510130512 18 355 1.6 4.8 0.00 0.00 0.00 91 1015.2
20260510130027 17 0 1.6 3.2 0.00 0.00 0.00 93 1015.1
20260510125509 17 0 0.0 3.2 0.00 0.00 0.00 94 1015.1
20260510125013 17 0 0.0 6.4 0.00 0.00 0.00 95 1015.0
20260510124530 17 0 0.0 6.4 0.00 0.00 0.00 95 1015.0
20260510124016 17 338 1.6 6.4 0.00 0.00 0.00 96 1015.0
20260510123512 16 336 0.0 4.8 0.00 0.00 0.00 96 1015.0
20260510123032 16 0 0.0 3.2 0.00 0.00 0.00 96 1014.9
20260510122514 16 0 0.0 3.2 0.00 0.00 0.00 96 1014.9
20260510122010 16 0 0.0 3.2 0.00 0.00 0.00 97 1014.9
20260510121531 16 0 0.0 3.2 0.00 0.00 0.00 96 1014.9
20260510121011 16 0 0.0 3.2 0.00 0.00 0.00 96 1014.8
20260510120512 16 0 0.0 3.2 0.00 0.00 0.00 97 1014.7
20260510120031 16 0 0.0 3.2 0.00 0.00 0.00 97 1014.7
20260510115512 16 0 0.0 0.0 0.00 0.00 0.00 97 1014.7
20260510115010 16 0 0.0 0.0 0.00 0.00 0.00 97 1014.7
20260510114531 16 0 0.0 0.0 0.00 0.00 0.00 97 1014.6
20260510114013 15 0 0.0 0.0 0.00 0.00 0.00 97 1014.4
20260510113512 15 0 0.0 0.0 0.00 0.00 0.00 97 1014.5
20260510113040 15 0 0.0 0.0 0.00 0.00 0.00 96 1014.3
20260510112512 15 0 0.0 0.0 0.00 0.00 0.00 96 1014.5
20260510112012 15 0 0.0 0.0 0.00 0.00 0.00 96 1014.3
20260510111530 15 0 0.0 0.0 0.00 0.00 0.00 96 1014.3
20260510111012 15 0 0.0 1.6 0.00 0.00 0.00 96 1014.1
20260510110511 15 0 0.0 1.6 0.00 0.00 0.00 96 1013.9
20260510110029 15 0 0.0 0.0 0.00 0.00 0.00 96 1013.9
20260510105513 15 0 0.0 1.6 0.00 0.00 0.00 96 1014.1
20260510105015 15 0 0.0 1.6 0.00 0.00 0.00 96 1013.9
20260510104531 15 0 0.0 0.0 0.00 0.00 0.00 96 1013.9
20260510104013 15 0 0.0 0.0 0.00 0.00 0.00 96 1013.8
20260510103512 15 0 0.0 0.0 0.00 0.00 0.00 96 1013.5
20260510103027 15 0 0.0 0.0 0.00 0.00 0.00 96 1013.4
20260510102509 15 0 0.0 0.0 0.00 0.00 0.00 96 1013.2
20260510102012 15 0 0.0 0.0 0.00 0.00 0.00 96 1013.0
20260510101528 15 0 0.0 0.0 0.00 0.00 0.00 96 1013.1
20260510101013 15 0 0.0 0.0 0.00 0.00 0.00 96 1013.0
20260510100512 15 0 0.0 0.0 0.00 0.00 0.00 96 1013.0
20260510100030 15 0 0.0 0.0 0.00 0.00 0.00 96 1012.9
20260510095513 15 0 0.0 0.0 0.00 0.00 0.00 96 1012.9
20260510095010 15 0 0.0 0.0 0.00 0.00 0.00 96 1012.6
20260510094529 15 0 0.0 0.0 0.00 0.00 0.00 96 1012.6
20260510094010 15 0 0.0 0.0 0.00 0.00 0.00 96 1012.5
20260510093509 15 0 0.0 0.0 0.00 0.00 0.00 96 1012.6
20260510093027 15 0 0.0 0.0 0.00 0.00 0.00 96 1012.5
20260510092514 15 0 0.0 0.0 0.00 0.00 0.00 96 1012.6
20260510092015 15 0 0.0 0.0 0.00 0.00 0.00 96 1012.5
20260510091527 15 0 0.0 0.0 0.00 0.00 0.00 96 1012.4
20260510091009 15 0 0.0 0.0 0.00 0.00 0.00 95 1012.5
20260510090517 15 0 0.0 0.0 0.00 0.00 0.00 95 1012.4
20260510090029 15 0 0.0 0.0 0.00 0.00 0.00 95 1012.4
20260510085512 15 0 0.0 0.0 0.00 0.00 0.00 95 1012.3
20260510085011 15 0 0.0 0.0 0.00 0.00 0.00 95 1012.3
20260510084528 15 0 0.0 0.0 0.00 0.00 0.00 95 1012.1
20260510084014 15 0 0.0 0.0 0.00 0.00 0.00 95 1012.3
20260510083511 15 0 0.0 0.0 0.00 0.00 0.00 95 1012.1
20260510083029 15 0 0.0 0.0 0.00 0.00 0.00 95 1012.2
20260510082513 15 0 0.0 0.0 0.00 0.00 0.00 95 1012.2
20260510082013 15 0 0.0 0.0 0.00 0.00 0.00 95 1012.1
20260510081532 15 0 0.0 0.0 0.00 0.00 0.00 95 1012.2
20260510081009 15 0 0.0 0.0 0.00 0.00 0.00 95 1012.0
20260510080511 15 0 0.0 0.0 0.00 0.00 0.00 95 1012.0
20260510080027 15 0 0.0 0.0 0.00 0.00 0.00 95 1012.1
20260510075510 15 0 0.0 0.0 0.00 0.00 0.00 95 1011.9
20260510075012 15 0 0.0 0.0 0.00 0.00 0.00 95 1011.8
20260510074533 16 0 0.0 0.0 0.00 0.00 0.00 95 1011.9
20260510074016 16 0 0.0 0.0 0.00 0.00 0.00 95 1012.1
20260510073511 16 0 0.0 0.0 0.00 0.00 0.00 95 1011.8
20260510073033 16 0 0.0 0.0 0.00 0.00 0.00 95 1011.8
20260510072510 16 0 0.0 0.0 0.00 0.00 0.00 95 1011.9
20260510072013 16 0 0.0 0.0 0.00 0.00 0.00 95 1011.8
20260510071528 16 0 0.0 1.6 0.00 0.00 0.00 95 1012.0
20260510071011 16 0 0.0 1.6 0.00 0.00 0.00 94 1012.0
20260510070511 16 0 0.0 3.2 0.00 0.00 0.00 94 1011.9
20260510070030 16 0 0.0 3.2 0.00 0.00 0.00 94 1012.0
20260510065511 16 0 0.0 0.0 0.00 0.00 0.00 94 1011.9
20260510065012 16 0 0.0 0.0 0.00 0.00 0.00 94 1012.0
20260510064540 16 0 0.0 0.0 0.00 0.00 0.00 94 1012.1
20260510064010 16 0 0.0 0.0 0.00 0.00 0.00 94 1012.0
20260510063512 16 0 0.0 0.0 0.00 0.00 0.00 94 1011.7
20260510063036 16 0 0.0 0.0 0.00 0.00 0.00 94 1011.7
20260510062511 16 0 0.0 0.0 0.00 0.00 0.00 94 1011.6
20260510062010 16 0 0.0 0.0 0.00 0.00 0.00 94 1011.6
20260510061530 16 0 0.0 0.0 0.00 0.00 0.00 94 1011.8
20260510061011 16 0 0.0 0.0 0.00 0.00 0.00 93 1012.0
20260510060511 16 0 0.0 0.0 0.00 0.00 0.00 93 1011.9
20260510060028 16 0 0.0 0.0 0.00 0.00 0.00 93 1012.0
20260510055509 16 0 0.0 0.0 0.00 0.00 0.00 93 1012.0
20260510055010 16 0 0.0 0.0 0.00 0.00 0.00 93 1012.0
20260510054528 16 0 0.0 0.0 0.00 0.00 0.00 93 1012.1
20260510054011 16 0 0.0 0.0 0.00 0.00 0.00 93 1012.1
20260510053514 16 0 0.0 0.0 0.00 0.00 0.00 93 1012.1
20260510053027 16 0 0.0 0.0 0.00 0.00 0.00 93 1012.1
20260510052512 16 0 0.0 0.0 0.00 0.00 0.00 92 1012.3
20260510052012 16 0 0.0 0.0 0.00 0.00 0.00 93 1012.2
20260510051531 16 0 0.0 0.0 0.00 0.00 0.00 93 1012.3
20260510051010 16 0 0.0 0.0 0.00 0.00 0.00 93 1012.3
20260510050512 16 0 0.0 0.0 0.00 0.00 0.00 92 1012.3
20260510050029 16 0 0.0 0.0 0.00 0.00 0.00 93 1012.3
20260510045511 16 0 0.0 0.0 0.00 0.00 0.00 93 1012.4
20260510045012 16 0 0.0 0.0 0.00 0.00 0.00 92 1012.5
20260510044535 16 0 0.0 0.0 0.00 0.00 0.00 92 1012.5
20260510044011 16 0 0.0 0.0 0.00 0.00 0.00 92 1012.3
20260510043513 16 0 0.0 0.0 0.00 0.00 0.00 92 1012.4
20260510043030 16 0 0.0 0.0 0.00 0.00 0.00 92 1012.3
20260510042512 16 0 0.0 0.0 0.00 0.00 0.00 92 1012.3
20260510042009 16 0 0.0 0.0 0.00 0.00 0.00 91 1012.4
20260510041530 16 0 0.0 0.0 0.00 0.00 0.00 91 1012.4
20260510041012 16 0 0.0 0.0 0.00 0.00 0.00 91 1012.3
20260510040512 17 0 0.0 0.0 0.00 0.00 0.00 91 1012.2
20260510040031 17 0 0.0 0.0 0.00 0.00 0.00 91 1012.2
20260510035509 17 0 0.0 0.0 0.00 0.00 0.00 91 1012.2
20260510035013 17 0 0.0 1.6 0.00 0.00 0.00 90 1012.2
20260510034535 17 0 0.0 1.6 0.00 0.00 0.00 91 1012.3
20260510034013 17 0 0.0 1.6 0.00 0.00 0.00 91 1012.1
20260510033512 17 0 0.0 0.0 0.00 0.00 0.00 91 1012.2
20260510033028 17 0 0.0 0.0 0.00 0.00 0.00 91 1012.2
20260510032511 17 0 0.0 0.0 0.00 0.00 0.00 90 1012.1
20260510032010 17 0 0.0 0.0 0.00 0.00 0.00 90 1012.0
20260510031532 17 0 0.0 0.0 0.00 0.00 0.00 90 1012.0
20260510031012 17 0 0.0 0.0 0.00 0.00 0.00 90 1011.9
20260510030514 17 0 0.0 0.0 0.00 0.00 0.00 90 1012.0
20260510030029 17 0 0.0 0.0 0.00 0.00 0.00 90 1011.8
20260510025512 17 0 0.0 0.0 0.00 0.00 0.00 89 1011.8
20260510025013 17 0 0.0 0.0 0.00 0.00 0.00 89 1012.0
20260510024530 17 0 0.0 0.0 0.00 0.00 0.00 89 1012.0
20260510024013 17 0 0.0 0.0 0.00 0.00 0.00 89 1012.0
20260510023510 17 0 0.0 0.0 0.00 0.00 0.00 89 1011.9
20260510023032 17 0 0.0 0.0 0.00 0.00 0.00 88 1011.9
20260510022512 17 0 0.0 0.0 0.00 0.00 0.00 88 1011.8
20260510022012 17 0 0.0 0.0 0.00 0.00 0.00 88 1011.9
20260510021536 17 0 0.0 0.0 0.00 0.00 0.00 87 1011.9
20260510021015 18 0 0.0 0.0 0.00 0.00 0.00 87 1011.8
20260510020512 18 0 0.0 0.0 0.00 0.00 0.00 87 1011.8
20260510020027 18 0 0.0 0.0 0.00 0.00 0.00 87 1011.7
20260510015510 18 0 0.0 0.0 0.00 0.00 0.00 87 1011.8
20260510015015 18 0 0.0 0.0 0.00 0.00 0.00 87 1011.8
20260510014532 18 0 0.0 0.0 0.00 0.00 0.00 86 1011.6
20260510014012 18 0 0.0 0.0 0.00 0.00 0.00 86 1011.5
20260510013512 18 0 0.0 0.0 0.00 0.00 0.00 86 1011.3
20260510013031 18 0 0.0 0.0 0.00 0.00 0.00 85 1011.3
20260510012514 18 0 0.0 0.0 0.00 0.00 0.00 85 1011.1
20260510012009 18 0 0.0 0.0 0.00 0.00 0.00 85 1011.2
20260510011531 18 0 0.0 0.0 0.00 0.00 0.00 84 1011.1
20260510011010 18 0 0.0 0.0 0.00 0.00 0.00 83 1011.1
20260510010512 19 0 0.0 0.0 0.00 0.00 0.00 83 1011.0
20260510010030 19 0 0.0 0.0 0.00 0.00 0.00 82 1011.0
20260510005513 19 0 0.0 0.0 0.00 0.00 0.00 82 1011.0
20260510005013 19 0 0.0 0.0 0.00 0.00 0.00 81 1011.1
20260510004530 20 0 0.0 0.0 0.00 0.00 0.00 80 1011.0
20260510004014 20 0 0.0 0.0 0.00 0.00 0.00 79 1010.9
20260510003510 20 0 0.0 0.0 0.00 0.00 0.00 79 1010.9
20260510003028 20 0 0.0 1.6 0.00 0.00 0.00 78 1011.1
20260510002511 20 0 0.0 1.6 0.00 0.00 0.00 78 1011.0
20260510002010 20 0 0.0 0.0 0.00 0.00 0.00 77 1011.1
20260510001530 21 0 0.0 1.6 0.00 0.00 0.00 77 1011.0
20260510001010 21 0 0.0 3.2 0.00 0.00 0.00 77 1010.9
20260510000510 21 0 0.0 3.2 0.00 0.00 0.00 76 1010.8
20260510000030 21 191 0.0 3.2 0.00 0.00 0.00 76 1010.7
20260509235512 21 0 0.0 4.8 0.00 0.00 0.00 76 1010.8
20260509235012 21 0 0.0 4.8 0.00 0.00 0.00 75 1010.7
20260509234533 21 227 0.0 4.8 0.00 0.00 0.00 75 1010.5
20260509234010 21 0 0.0 4.8 0.00 0.00 0.00 75 1010.4
20260509233510 21 0 0.0 4.8 0.00 0.00 0.00 74 1010.4
20260509233030 21 263 0.0 6.4 0.00 0.00 0.00 74 1010.4
20260509232510 21 191 0.0 6.4 0.00 0.00 0.00 73 1010.4
20260509232010 21 0 0.0 6.4 0.00 0.00 0.00 73 1010.3
20260509231530 22 186 0.0 6.4 0.00 0.00 0.00 72 1010.4
20260509231009 22 0 0.0 3.2 0.00 0.00 0.00 72 1010.4
20260509230511 22 0 0.0 4.8 0.00 0.00 0.00 72 1010.3
20260509230030 22 0 0.0 6.4 0.00 0.00 0.00 72 1010.3
20260509225510 22 281 1.6 6.4 0.00 0.00 0.00 71 1010.1
20260509225012 22 0 0.0 4.8 0.00 0.00 0.00 71 1009.9
20260509224532 22 204 1.6 6.4 0.00 0.00 0.00 71 1010.2
20260509224010 22 0 0.0 8.0 0.00 0.00 0.00 71 1010.3
20260509223509 22 0 1.6 8.0 0.00 0.00 0.00 71 1010.5
20260509223031 22 0 0.0 6.4 0.00 0.00 0.00 70 1010.2
20260509222510 22 63 1.6 6.4 0.00 0.00 0.00 71 1010.2
20260509222010 22 208 1.6 6.4 0.00 0.00 0.00 72 1010.4
20260509221531 22 0 0.0 6.4 0.00 0.00 0.00 71 1010.4
20260509221010 22 208 1.6 4.8 0.00 0.00 0.00 71 1010.3
20260509220513 22 0 0.0 4.8 0.00 0.00 0.00 71 1010.4
20260509220027 22 261 1.6 4.8 0.00 0.00 0.00 70 1010.4
20260509215513 22 0 0.0 4.8 0.00 0.00 0.00 70 1010.3
20260509215012 22 0 0.0 6.4 0.00 0.00 0.00 71 1010.2
20260509214527 22 282 1.6 8.0 0.00 0.00 0.00 70 1010.1
20260509214011 22 262 1.6 8.0 0.00 0.00 0.00 69 1010.2
20260509213511 22 128 1.6 9.7 0.00 0.00 0.00 69 1010.1
20260509213030 22 172 0.0 9.7 0.00 0.00 0.00 70 1010.0
20260509212512 22 143 1.6 9.7 0.00 0.00 0.00 69 1010.0
20260509212014 22 279 1.6 9.7 0.00 0.00 0.00 67 1009.9
20260509211529 22 107 1.6 9.7 0.00 0.00 0.00 68 1009.9
20260509211009 22 169 1.6 9.7 0.00 0.00 0.00 69 1009.9
20260509210510 22 141 1.6 9.7 0.00 0.00 0.00 69 1009.9
20260509210032 22 242 1.6 11.3 0.00 0.00 0.00 70 1010.0
20260509205509 22 269 1.6 11.3 0.00 0.00 0.00 70 1010.2
20260509205010 22 274 1.6 11.3 0.00 0.00 0.00 69 1010.2
20260509204530 21 275 1.6 8.0 0.00 0.00 0.00 70 1010.2
20260509204010 21 156 0.0 9.7 0.00 0.00 0.00 70 1009.9
20260509203511 22 269 3.2 9.7 0.00 0.00 0.00 69 1010.2
20260509203030 22 294 1.6 8.0 0.00 0.00 0.00 69 1010.0
20260509202511 22 251 1.6 8.0 0.00 0.00 0.00 68 1010.0
20260509202021 22 174 1.6 4.8 0.00 0.00 0.00 68 1010.0
20260509201529 22 0 1.6 8.0 0.00 0.00 0.00 69 1010.2
20260509201013 22 111 1.6 8.0 0.00 0.00 0.00 69 1010.0
20260509200510 21 220 1.6 9.7 0.00 0.00 0.00 68 1010.3
20260509200031 22 247 3.2 9.7 0.00 0.00 0.00 68 1010.4
20260509195516 22 275 0.0 8.0 0.00 0.00 0.00 68 1010.4
20260509195012 22 0 1.6 12.9 0.00 0.00 0.00 67 1010.4
20260509194528 22 277 3.2 12.9 0.00 0.00 0.00 66 1010.5
20260509194014 22 246 1.6 12.9 0.00 0.00 0.00 65 1010.6
20260509193511 22 273 1.6 9.7 0.00 0.00 0.00 64 1010.5
20260509193028 22 259 3.2 9.7 0.00 0.00 0.00 64 1010.6
20260509192511 22 155 3.2 9.7 0.00 0.00 0.00 63 1010.6
20260509192011 22 160 1.6 9.7 0.00 0.00 0.00 62 1010.6
20260509191528 22 132 1.6 11.3 0.00 0.00 0.00 62 1010.5
20260509191011 23 169 1.6 11.3 0.00 0.00 0.00 61 1010.7
20260509190512 23 260 1.6 11.3 0.00 0.00 0.00 61 1010.7
20260509190029 24 238 3.2 11.3 0.00 0.00 0.00 58 1010.7
20260509185510 24 286 1.6 12.9 0.00 0.00 0.00 59 1010.6
20260509185011 23 305 3.2 14.5 0.00 0.00 0.00 60 1010.6
20260509184533 23 152 3.2 14.5 0.00 0.00 0.00 58 1010.6
20260509184014 23 140 3.2 9.7 0.00 0.00 0.00 60 1010.5
20260509183512 23 143 1.6 9.7 0.00 0.00 0.00 60 1010.6
20260509183059 23 267 1.6 12.9 0.00 0.00 0.00 61 1010.6
20260509182512 23 157 1.6 12.9 0.00 0.00 0.00 59 1010.8
20260509182010 23 105 4.8 12.9 0.00 0.00 0.00 58 1010.8
20260509181534 23 39 1.6 12.9 0.00 0.00 0.00 59 1011.0
20260509181011 23 182 1.6 12.9 0.00 0.00 0.00 58 1011.0
20260509180511 23 246 1.6 16.1 0.00 0.00 0.00 58 1011.3
20260509180029 23 246 3.2 16.1 0.00 0.00 0.00 57 1011.4
20260509175509 23 200 1.6 11.3 0.00 0.00 0.00 58 1011.4
20260509175011 22 183 0.0 8.0 0.00 0.00 0.00 60 1011.5
20260509174530 22 249 1.6 9.7 0.00 0.00 0.00 59 1011.5
20260509174011 22 258 1.6 9.7 0.00 0.00 0.00 59 1011.6
20260509173512 22 130 3.2 12.9 0.00 0.00 0.00 60 1011.6
20260509173029 22 221 3.2 14.5 0.00 0.00 0.00 61 1011.7
20260509172514 22 222 1.6 14.5 0.00 0.00 0.00 60 1011.7
20260509172009 22 121 3.2 14.5 0.00 0.00 0.00 60 1011.9
20260509171537 22 219 3.2 11.3 0.00 0.00 0.00 60 1011.7
20260509171011 22 275 3.2 11.3 0.00 0.00 0.00 60 1011.9
20260509170512 22 96 1.6 9.7 0.00 0.00 0.00 62 1011.9
20260509170032 22 185 1.6 12.9 0.00 0.00 0.00 63 1011.8
20260509165511 22 305 3.2 12.9 0.00 0.00 0.00 61 1012.0
20260509165008 22 96 1.6 12.9 0.00 0.00 0.00 63 1012.0
20260509164530 22 94 3.2 14.5 0.00 0.00 0.00 61 1011.8
20260509164014 22 157 3.2 14.5 0.00 0.00 0.00 62 1012.0
20260509163515 22 355 3.2 14.5 0.00 0.00 0.00 62 1012.1
20260509163028 22 266 4.8 14.5 0.00 0.00 0.00 62 1011.9